sat.trackr.live / text

‹ back to catalog

STARLINK-4618

NORAD 53735 · 2022-107AM

PAYLOAD ACTIVE UNKNOWN

§ Identity

Operator
Country
US
Launch date
2022-09-05
Launch site
AFETR
Launch vehicle
Mass (kg)
RCS (m²)

Purposes: comms

External: N2YO · Heavens-Above · Gunter

§ Orbital elements

Epoch: 2026-05-25T02:45:15.589728Z

Period
95.44 min
Inclination
53.2159°
Eccentricity
0.0001310
Mean motion
15.08839874 rev/d
Perigee alt
538.8 km
Apogee alt
540.7 km
Semi-major
6,917.9 km
B*
5.1099e-5
RAAN
280.8471°
Arg perigee
91.3194°
Mean anomaly
268.7948°
Rev number
20,598

§ Raw data

STARLINK-46181 53735U 22107AM  26145.11476377  .00000525  00000+0  51099-4 0  99982 53735  53.2159 280.8471 0001310  91.3194 268.7948 15.08839874205983

JSON: /api/v1/satellites/53735 · /tle

For live sub-satellite position, see the globe view (requires WebGL).

§ Visibility from observer

Set your observer location to see the next 7 days of passes ≥ 10°. The values pass through the URL so the page stays shareable.

No JS? Fill the form by hand. The geolocation button needs JavaScript.